| time (UTC) | temp F | wind direction | speed knots | gust knots | rain 1hr in | rain 24hr in | rain mn in | humidity % | barometer mb |
| 20260905072020 | 85 | 225 | 0.0 | 0.9 | 0.00 | 0.00 | 0.00 | 64 | 1015.3 |
| 20260905071020 | 85 | 242 | 0.0 | 0.9 | 0.00 | 0.00 | 0.00 | 64 | 1015.3 |
| 20260905070020 | 85 | 243 | 0.9 | 1.7 | 0.00 | 0.00 | 0.00 | 64 | 1015.3 |
| 20260905065020 | 86 | 245 | 0.0 | 1.7 | 0.00 | 0.00 | 0.00 | 64 | 1015.3 |
| 20260905064020 | 86 | 230 | 0.9 | 2.6 | 0.00 | 0.00 | 0.00 | 64 | 1015.4 |
| 20260905063020 | 86 | 242 | 0.9 | 2.6 | 0.00 | 0.00 | 0.00 | 63 | 1015.4 |
| 20260905062021 | 86 | 282 | 0.9 | 3.5 | 0.00 | 0.00 | 0.00 | 63 | 1015.4 |
| 20260905061020 | 87 | 295 | 0.9 | 0.9 | 0.00 | 0.00 | 0.00 | 63 | 1015.3 |
| 20260905060021 | 87 | 305 | 0.9 | 2.6 | 0.00 | 0.00 | 0.00 | 62 | 1015.3 |
| 20260905055021 | 87 | 241 | 0.9 | 2.6 | 0.00 | 0.00 | 0.00 | 62 | 1015.3 |
| 20260905054021 | 87 | 228 | 0.9 | 2.6 | 0.00 | 0.00 | 0.00 | 61 | 1015.2 |
| 20260905053021 | 87 | 232 | 0.9 | 2.6 | 0.00 | 0.00 | 0.00 | 61 | 1015.2 |
| 20260905052021 | 88 | 270 | 0.9 | 2.6 | 0.00 | 0.00 | 0.00 | 60 | 1015.1 |
| 20260905051022 | 88 | 238 | 0.9 | 2.6 | 0.00 | 0.00 | 0.00 | 59 | 1015.1 |
| 20260905050022 | 88 | 264 | 1.7 | 3.5 | 0.00 | 0.00 | 0.00 | 59 | 1015.1 |
| 20260905045043 | 88 | 245 | 0.9 | 4.3 | 0.00 | 0.00 | 0.00 | 58 | 1015.1 |
| 20260905044023 | 89 | 222 | 0.9 | 3.5 | 0.00 | 0.00 | 0.00 | 57 | 1015.1 |
| 20260905043023 | 89 | 217 | 0.9 | 2.6 | 0.00 | 0.00 | 0.00 | 56 | 1015.1 |
| 20260905042022 | 89 | 170 | 0.9 | 1.7 | 0.00 | 0.00 | 0.00 | 55 | 1015.0 |
| 20260905041022 | 89 | 239 | 0.9 | 3.5 | 0.00 | 0.00 | 0.00 | 54 | 1015.1 |
| 20260905040023 | 90 | 196 | 0.9 | 2.6 | 0.00 | 0.00 | 0.00 | 53 | 1015.1 |
| 20260905035023 | 90 | 197 | 0.9 | 2.6 | 0.00 | 0.00 | 0.00 | 53 | 1015.0 |
| 20260905034023 | 90 | 227 | 1.7 | 4.3 | 0.00 | 0.00 | 0.00 | 52 | 1015.0 |
| 20260905033018 | 91 | 247 | 0.9 | 3.5 | 0.00 | 0.00 | 0.00 | 51 | 1015.0 |
| 20260905032018 | 91 | 200 | 0.9 | 4.3 | 0.00 | 0.00 | 0.00 | 51 | 1014.9 |
| 20260905031018 | 91 | 224 | 1.7 | 4.3 | 0.00 | 0.00 | 0.00 | 51 | 1014.9 |
| 20260905030038 | 91 | 218 | 0.9 | 4.3 | 0.00 | 0.00 | 0.00 | 51 | 1014.8 |
| 20260905025022 | 91 | 207 | 1.7 | 4.3 | 0.00 | 0.00 | 0.00 | 50 | 1014.7 |
| 20260905024019 | 92 | 220 | 1.7 | 4.3 | 0.00 | 0.00 | 0.00 | 49 | 1014.6 |
| 20260905023019 | 92 | 228 | 0.9 | 2.6 | 0.00 | 0.00 | 0.00 | 49 | 1014.5 |
| 20260905022019 | 92 | 204 | 1.7 | 5.2 | 0.00 | 0.00 | 0.00 | 48 | 1014.3 |
| 20260905021019 | 92 | 202 | 1.7 | 5.2 | 0.00 | 0.00 | 0.00 | 47 | 1014.2 |
| 20260905020020 | 93 | 190 | 1.7 | 7.0 | 0.00 | 0.00 | 0.00 | 47 | 1014.0 |
| 20260905015020 | 93 | 193 | 2.6 | 6.1 | 0.00 | 0.00 | 0.00 | 47 | 1013.9 |
| 20260905014020 | 93 | 195 | 1.7 | 4.3 | 0.00 | 0.00 | 0.00 | 46 | 1013.8 |
| 20260905013020 | 93 | 213 | 1.7 | 6.1 | 0.00 | 0.00 | 0.00 | 46 | 1013.7 |
| 20260905012020 | 94 | 202 | 2.6 | 9.6 | 0.00 | 0.00 | 0.00 | 45 | 1013.6 |
| 20260905011020 | 94 | 183 | 2.6 | 5.2 | 0.00 | 0.00 | 0.00 | 46 | 1013.6 |
| 20260905010020 | 94 | 191 | 1.7 | 4.3 | 0.00 | 0.00 | 0.00 | 46 | 1013.5 |
| 20260905005021 | 94 | 200 | 3.5 | 6.1 | 0.00 | 0.00 | 0.00 | 45 | 1013.4 |
| 20260905004018 | 95 | 202 | 1.7 | 4.3 | 0.00 | 0.00 | 0.00 | 45 | 1013.3 |
| 20260905003018 | 95 | 187 | 2.6 | 7.0 | 0.00 | 0.00 | 0.00 | 45 | 1013.2 |
| 20260905002021 | 95 | 183 | 3.5 | 9.6 | 0.00 | 0.00 | 0.00 | 45 | 1013.1 |
| 20260905001041 | 95 | 193 | 2.6 | 7.0 | 0.00 | 0.00 | 0.00 | 45 | 1013.1 |
| 20260905000018 | 96 | 195 | 2.6 | 6.1 | 0.00 | 0.00 | 0.00 | 45 | 1013.1 |
| 20260904235018 | 96 | 179 | 3.5 | 7.0 | 0.00 | 0.00 | 0.00 | 44 | 1013.0 |
| 20260904234019 | 96 | 198 | 2.6 | 7.0 | 0.00 | 0.00 | 0.00 | 45 | 1013.1 |
| 20260904233019 | 96 | 199 | 2.6 | 7.8 | 0.00 | 0.00 | 0.00 | 45 | 1013.0 |
| 20260904232019 | 97 | 187 | 2.6 | 7.0 | 0.00 | 0.00 | 0.00 | 45 | 1013.0 |
| 20260904231019 | 97 | 183 | 3.5 | 8.7 | 0.00 | 0.00 | 0.00 | 44 | 1013.0 |
| 20260904230019 | 99 | 203 | 2.6 | 6.1 | 0.00 | 0.00 | 0.00 | 43 | 1013.0 |
| 20260904225020 | 100 | 218 | 1.7 | 3.5 | 0.00 | 0.00 | 0.00 | 40 | 1013.0 |
| 20260904224019 | 100 | 236 | 1.7 | 4.3 | 0.00 | 0.00 | 0.00 | 40 | 1013.1 |
| 20260904223021 | 99 | 253 | 1.7 | 6.1 | 0.00 | 0.00 | 0.00 | 40 | 1013.1 |
| 20260904222021 | 100 | 256 | 1.7 | 3.5 | 0.00 | 0.00 | 0.00 | 41 | 1013.1 |
| 20260904221037 | 100 | 240 | 1.7 | 4.3 | 0.00 | 0.00 | 0.00 | 40 | 1013.1 |
| 20260904220021 | 100 | 235 | 2.6 | 8.7 | 0.00 | 0.00 | 0.00 | 40 | 1013.2 |
| 20260904215020 | 99 | 218 | 2.6 | 5.2 | 0.00 | 0.00 | 0.00 | 41 | 1013.3 |
| 20260904214021 | 99 | 265 | 1.7 | 5.2 | 0.00 | 0.00 | 0.00 | 41 | 1013.4 |
| 20260904213038 | 100 | 277 | 0.9 | 2.6 | 0.00 | 0.00 | 0.00 | 41 | 1013.5 |
| 20260904212018 | 99 | 241 | 1.7 | 4.3 | 0.00 | 0.00 | 0.00 | 41 | 1013.5 |
| 20260904211024 | 98 | 199 | 2.6 | 7.0 | 0.00 | 0.00 | 0.00 | 41 | 1013.7 |
| 20260904210018 | 98 | 193 | 2.6 | 5.2 | 0.00 | 0.00 | 0.00 | 42 | 1013.7 |
| 20260904205019 | 101 | 196 | 3.5 | 7.8 | 0.00 | 0.00 | 0.00 | 40 | 1013.9 |
| 20260904204019 | 101 | 227 | 1.7 | 6.1 | 0.00 | 0.00 | 0.00 | 39 | 1013.9 |
| 20260904203019 | 100 | 236 | 1.7 | 3.5 | 0.00 | 0.00 | 0.00 | 40 | 1014.0 |
| 20260904202039 | 99 | 215 | 1.7 | 6.1 | 0.00 | 0.00 | 0.00 | 40 | 1014.2 |
| 20260904201019 | 98 | 192 | 2.6 | 5.2 | 0.00 | 0.00 | 0.00 | 41 | 1014.4 |
| 20260904200039 | 98 | 212 | 1.7 | 6.1 | 0.00 | 0.00 | 0.00 | 42 | 1014.5 |
| 20260904195019 | 99 | 228 | 1.7 | 6.1 | 0.00 | 0.00 | 0.00 | 42 | 1014.7 |
| 20260904194039 | 99 | 189 | 2.6 | 5.2 | 0.00 | 0.00 | 0.00 | 41 | 1014.7 |
| 20260904193017 | 98 | 278 | 1.7 | 4.3 | 0.00 | 0.00 | 0.00 | 43 | 1014.8 |
| 20260904192037 | 98 | 228 | 2.6 | 7.8 | 0.00 | 0.00 | 0.00 | 44 | 1015.0 |
| 20260904191017 | 97 | 281 | 1.7 | 6.1 | 0.00 | 0.00 | 0.00 | 44 | 1015.0 |
| 20260904190020 | 96 | 255 | 2.6 | 7.8 | 0.00 | 0.00 | 0.00 | 46 | 1015.2 |
| 20260904185020 | 96 | 195 | 1.7 | 7.0 | 0.00 | 0.00 | 0.00 | 47 | 1015.4 |
| 20260904184020 | 95 | 245 | 1.7 | 6.1 | 0.00 | 0.00 | 0.00 | 48 | 1015.5 |
| 20260904183018 | 94 | 194 | 2.6 | 6.1 | 0.00 | 0.00 | 0.00 | 49 | 1015.6 |
| 20260904182038 | 95 | 196 | 3.5 | 6.1 | 0.00 | 0.00 | 0.00 | 50 | 1015.7 |
| 20260904181041 | 94 | 281 | 1.7 | 4.3 | 0.00 | 0.00 | 0.00 | 51 | 1015.9 |
| 20260904180021 | 94 | 208 | 1.7 | 4.3 | 0.00 | 0.00 | 0.00 | 51 | 1016.0 |
| 20260904175018 | 94 | 275 | 1.7 | 3.5 | 0.00 | 0.00 | 0.00 | 50 | 1016.1 |
| 20260904174039 | 94 | 267 | 1.7 | 4.3 | 0.00 | 0.00 | 0.00 | 51 | 1016.3 |
| 20260904173019 | 93 | 208 | 1.7 | 6.1 | 0.00 | 0.00 | 0.00 | 54 | 1016.4 |
| 20260904172019 | 93 | 209 | 2.6 | 7.0 | 0.00 | 0.00 | 0.00 | 55 | 1016.5 |
| 20260904171059 | 93 | 224 | 1.7 | 5.2 | 0.00 | 0.00 | 0.00 | 56 | 1016.6 |
| 20260904170019 | 93 | 191 | 2.6 | 5.2 | 0.00 | 0.00 | 0.00 | 57 | 1016.7 |
| 20260904165040 | 93 | 290 | 1.7 | 6.1 | 0.00 | 0.00 | 0.00 | 56 | 1016.8 |
| 20260904164020 | 91 | 277 | 1.7 | 5.2 | 0.00 | 0.00 | 0.00 | 58 | 1016.8 |
| 20260904163019 | 91 | 276 | 1.7 | 6.1 | 0.00 | 0.00 | 0.00 | 59 | 1016.8 |
| 20260904162020 | 91 | 243 | 1.7 | 7.8 | 0.00 | 0.00 | 0.00 | 59 | 1016.7 |
| 20260904161040 | 90 | 237 | 1.7 | 5.2 | 0.00 | 0.00 | 0.00 | 60 | 1016.8 |
| 20260904160020 | 90 | 260 | 2.6 | 6.1 | 0.00 | 0.00 | 0.00 | 61 | 1016.8 |
| 20260904155020 | 90 | 210 | 1.7 | 3.5 | 0.00 | 0.00 | 0.00 | 62 | 1016.7 |
| 20260904154017 | 89 | 258 | 1.7 | 6.1 | 0.00 | 0.00 | 0.00 | 64 | 1016.7 |
| 20260904153018 | 88 | 242 | 1.7 | 6.1 | 0.00 | 0.00 | 0.00 | 66 | 1016.7 |
| 20260904152018 | 88 | 230 | 1.7 | 7.0 | 0.00 | 0.00 | 0.00 | 66 | 1016.7 |
| 20260904151021 | 87 | 272 | 1.7 | 5.2 | 0.00 | 0.00 | 0.00 | 68 | 1016.7 |
| 20260904150019 | 87 | 241 | 1.7 | 5.2 | 0.00 | 0.00 | 0.00 | 71 | 1016.6 |
| 20260904145038 | 86 | 237 | 1.7 | 4.3 | 0.00 | 0.00 | 0.00 | 73 | 1016.7 |
| 20260904144019 | 85 | 218 | 1.7 | 6.1 | 0.00 | 0.00 | 0.00 | 73 | 1016.7 |
| 20260904143019 | 85 | 172 | 2.6 | 6.1 | 0.00 | 0.00 | 0.00 | 74 | 1016.7 |
| 20260904142019 | 83 | 185 | 1.7 | 4.3 | 0.00 | 0.00 | 0.00 | 76 | 1016.7 |
| 20260904141019 | 82 | 187 | 1.7 | 3.5 | 0.00 | 0.00 | 0.00 | 79 | 1016.7 |
| 20260904140019 | 83 | 216 | 1.7 | 4.3 | 0.00 | 0.00 | 0.00 | 78 | 1016.6 |
| 20260904135020 | 83 | 198 | 1.7 | 4.3 | 0.00 | 0.00 | 0.00 | 78 | 1016.6 |
| 20260904134020 | 82 | 230 | 1.7 | 4.3 | 0.00 | 0.00 | 0.00 | 79 | 1016.5 |
| 20260904133023 | 82 | 237 | 1.7 | 4.3 | 0.00 | 0.00 | 0.00 | 79 | 1016.5 |
| 20260904132023 | 81 | 182 | 1.7 | 5.2 | 0.00 | 0.00 | 0.00 | 80 | 1016.3 |
| 20260904131023 | 80 | 190 | 0.9 | 2.6 | 0.00 | 0.00 | 0.00 | 81 | 1016.2 |
| 20260904130023 | 80 | 177 | 1.7 | 4.3 | 0.00 | 0.00 | 0.00 | 82 | 1016.2 |
| 20260904125023 | 79 | 185 | 1.7 | 3.5 | 0.00 | 0.00 | 0.00 | 82 | 1016.1 |
| 20260904124023 | 79 | 150 | 0.9 | 2.6 | 0.00 | 0.00 | 0.00 | 84 | 1016.0 |
| 20260904123023 | 78 | 182 | 1.7 | 3.5 | 0.00 | 0.00 | 0.00 | 84 | 1016.0 |
| 20260904122024 | 78 | 183 | 0.9 | 2.6 | 0.00 | 0.00 | 0.00 | 84 | 1015.9 |
| 20260904121024 | 78 | 165 | 0.9 | 2.6 | 0.00 | 0.00 | 0.00 | 84 | 1015.8 |
| 20260904120024 | 78 | 187 | 0.9 | 2.6 | 0.00 | 0.00 | 0.00 | 84 | 1015.8 |
| 20260904115044 | 78 | 163 | 0.9 | 2.6 | 0.00 | 0.00 | 0.00 | 83 | 1015.8 |
| 20260904114024 | 78 | 197 | 0.9 | 2.6 | 0.00 | 0.00 | 0.00 | 83 | 1015.7 |
| 20260904113024 | 78 | 195 | 0.9 | 2.6 | 0.00 | 0.00 | 0.00 | 83 | 1015.7 |
| 20260904112045 | 78 | 222 | 0.9 | 2.6 | 0.00 | 0.00 | 0.00 | 83 | 1015.7 |
| 20260904111024 | 78 | 211 | 0.9 | 1.7 | 0.00 | 0.00 | 0.00 | 83 | 1015.7 |
| 20260904110045 | 79 | 205 | 0.9 | 2.6 | 0.00 | 0.00 | 0.00 | 82 | 1015.6 |
| 20260904105045 | 79 | 196 | 0.9 | 2.6 | 0.00 | 0.00 | 0.00 | 82 | 1015.4 |
| 20260904104045 | 79 | 212 | 0.9 | 1.7 | 0.00 | 0.00 | 0.00 | 82 | 1015.5 |
| 20260904103025 | 79 | 228 | 0.0 | 1.7 | 0.00 | 0.00 | 0.00 | 82 | 1015.5 |
| 20260904102046 | 79 | 185 | 0.9 | 0.9 | 0.00 | 0.00 | 0.00 | 81 | 1015.4 |
| 20260904101026 | 79 | 187 | 0.9 | 3.5 | 0.00 | 0.00 | 0.00 | 81 | 1015.3 |
| 20260904100026 | 79 | 169 | 0.9 | 3.5 | 0.00 | 0.00 | 0.00 | 81 | 1015.2 |
| 20260904095026 | 79 | 179 | 1.7 | 2.6 | 0.00 | 0.00 | 0.00 | 80 | 1015.2 |
| 20260904094026 | 79 | 180 | 0.9 | 1.7 | 0.00 | 0.00 | 0.00 | 80 | 1015.2 |
| 20260904093046 | 79 | 184 | 0.9 | 2.6 | 0.00 | 0.00 | 0.00 | 80 | 1015.2 |
| 20260904092027 | 80 | 192 | 0.9 | 2.6 | 0.00 | 0.00 | 0.00 | 79 | 1015.2 |
| 20260904091026 | 80 | 189 | 1.7 | 3.5 | 0.00 | 0.00 | 0.00 | 79 | 1015.2 |
| 20260904090027 | 80 | 193 | 0.0 | 0.9 | 0.00 | 0.00 | 0.00 | 79 | 1015.3 |
| 20260904085027 | 80 | 217 | 1.7 | 3.5 | 0.00 | 0.00 | 0.00 | 79 | 1015.3 |
| 20260904084028 | 80 | 220 | 0.9 | 1.7 | 0.00 | 0.00 | 0.00 | 79 | 1015.2 |
| 20260904083028 | 80 | 282 | 0.9 | 1.7 | 0.00 | 0.00 | 0.00 | 79 | 1015.1 |
| 20260904082028 | 80 | 207 | 0.9 | 1.7 | 0.00 | 0.00 | 0.00 | 78 | 1015.1 |
| 20260904081048 | 80 | 232 | 0.9 | 1.7 | 0.00 | 0.00 | 0.00 | 78 | 1015.1 |
| 20260904080048 | 80 | 198 | 0.9 | 1.7 | 0.00 | 0.00 | 0.00 | 78 | 1015.1 |
| 20260904075028 | 80 | 209 | 0.9 | 1.7 | 0.00 | 0.00 | 0.00 | 77 | 1015.0 |
| 20260904074023 | 80 | 275 | 0.9 | 4.3 | 0.00 | 0.00 | 0.00 | 76 | 1015.0 |
| 20260904073028 | 80 | 196 | 0.9 | 3.5 | 0.00 | 0.00 | 0.00 | 76 | 1015.0 |